Regional Weather Roundup
Issued by NWS

Home | Current Version | Previous Version | Text Only | Print | Product List | Glossary Off
Versions: 1 2 3 4 5 6 7 8 9 10 11 12 13 14 15 16 17 18 19 20 21 22 23 24 25 26 27 28

000
ASUS45 KSLC 200310
RWRUT

UTAH REGIONAL WEATHER ROUNDUP
NATIONAL WEATHER SERVICE SALT LAKE CITY UT
900 PM MDT SAT MAY 19 2018

UTZ001>011-023>025-200400-

NORTHERN UTAH

CITY           SKY/WX    TMP DP  RH WIND       PRES   REMARKS
BRIGHAM CITY   PTCLDY    67  45  44 E5        29.95R
HILL AFB       PTCLDY    65  39  38 NE3       29.95S
LOGAN          PTCLDY    58  48  69 N5        29.96R
OGDEN          PTCLDY    65  34  31 N5        29.93S
SALT LAKE CITY PTCLDY    65  41  41 W7        29.92R
TOOELE VALLEY  PTCLDY    59  45  58 E3        29.95R
WENDOVER       CLOUDY    68  40  35 SW23      29.94R
HEBER CITY       N/A     55  39  54 CALM      30.00R
WEST JORDAN    PTCLDY    64  42  45 W3        29.96R

$$

UTZ011>015-024>027-200400-

CENTRAL/NORTHEAST UTAH

CITY           SKY/WX    TMP DP  RH WIND       PRES   REMARKS
PROVO AIRPORT  PTCLDY    66  45  46 CALM        N/A
MOAB/CANYONLAN PTCLDY    74  28  18 E13       29.87R
DELTA          MOCLDY    63  39  42 NW7       29.95R
PRICE          CLOUDY    65  35  33 N10G21    29.98R
RICHFIELD      PTCLDY    64  37  36 CALM      29.99R
ROOSEVELT      PTCLDY    63  36  36 N5        30.02R
VERNAL         PTCLDY    61  38  42 NE10      30.03R

$$

UTZ013>016-019>022-027-200400-

SOUTHERN UTAH

CITY           SKY/WX    TMP DP  RH WIND       PRES   REMARKS
BRYCE CANYON   MOCLDY    53  35  50 NE14      30.09F
CEDAR CITY     MOCLDY    61  40  45 N10       29.94S
MILFORD        MOCLDY    64  39  39 N7        29.96R
ST GEORGE      CLEAR     85  26  11 W8        29.76R
HANKSVILLE     PTCLDY    72  32  23 NW6       29.91R
KANAB          CLEAR     70  28  21 S2        29.93R
BLANDING         N/A     66  25  21 NE5       30.03R

$$

REGIONAL REPORTS     COLORADO/ARIZONA

CITY           SKY/WX    TMP DP  RH WIND       PRES   REMARKS
CRAIG, CO      CLOUDY    49  42  77 S7        30.12R
GRAND JUNCTION CLEAR     67  33  28 NE12      29.93R
RIFLE, CO      PTCLDY    59  39  47 NE5       30.04R
MONTROSE, CO   MOCLDY    63  34  33 SE12      30.03R
CORTEZ, CO     CLEAR     56  29  35 S6        29.97R
COLORADO CITY    N/A     75  27  16 NW8       29.93R
PAGE, AZ       MOCLDY    80  25  13 S3        29.83R
GRAND CANYON   MOCLDY    68  18  14 SW12      30.01R
KINGMAN, AZ      N/A     77  27  15 SW14      29.84R
FLAGSTAFF, AZ  PTCLDY    59  19  21 SW10      30.06R

$$

REGIONAL REPORTS    NEVADA/IDAHO/WYOMING

CITY           SKY/WX    TMP DP  RH WIND       PRES   REMARKS
LAS VEGAS, NV  MOCLDY    85  35  16 NW10      29.73R
ELY, NY        CLOUDY    51  40  65 S7        30.05S
ELKO, NV       LGT RAIN  63  44  50 W14G20    29.95R
POCATELLO, ID  MOCLDY    62  45  53 NE6       29.97R
BURLEY, ID     PTCLDY    67  40  37 E3        29.92R
FORT BRIDGER,    N/A     53  40  60 E16       30.16R
EVANSTON, WY   MOCLDY    52  41  66 E8        30.10R
ROCK SPRINGS,  PTCLDY    47  38  71 NE18      30.15R
KEMMERER, WY   MOCLDY    50  37  62 E18G26    30.15R

$$




USA.gov is the U.S. government's official web portal to all federal, state and local government web resources and services.